Date,TemperatureHighF,TemperatureAvgF,TemperatureLowF,DewpointHighF,DewpointAvgF,DewpointLowF,HumidityHigh,HumidityAvg,HumidityLow,PressureMaxIn,PressureMinIn,WindSpeedMaxMPH,WindSpeedAvgMPH,GustSpeedMaxMPH,PrecipitationSumIn
2012-1-1,77,67,61,-100,-100,-100,0,0,100,30.28,30.16,9,-665,12,0.00
2012-1-2,73,63,55,-100,-100,-100,0,0,100,30.25,30.10,18,-682,22,0.00
2012-1-3,59,51,42,-100,-100,-100,0,0,100,30.39,30.21,23,-711,28,0.00
2012-1-4,66,48,37,-100,-100,-100,0,0,100,30.43,30.29,10,-730,14,0.00
2012-1-5,66,53,42,-100,-100,-100,0,0,100,30.34,30.20,8,-753,12,0.00
2012-1-6,75,59,49,-100,-100,-100,0,0,100,30.25,30.13,5,-763,7,0.00
2012-1-7,72,61,52,-100,-100,-100,0,0,100,30.21,30.12,6,-735,8,0.00
2012-1-8,77,66,55,-100,-100,-100,0,0,100,30.24,30.14,9,-721,14,0.00
2012-1-9,79,68,60,-100,-100,-100,0,0,100,30.21,30.07,7,-746,12,0.00
2012-1-10,78,68,59,-100,-100,-100,0,0,100,30.11,29.96,9,-740,13,0.00
2012-1-11,73,68,62,-100,-100,-100,0,0,100,29.99,29.82,17,-720,23,0.00
2012-1-12,74,69,63,-100,-100,-100,0,0,100,30.00,29.86,10,-725,14,0.00
2012-1-13,70,64,54,-100,-100,-100,0,0,100,30.22,30.00,12,-718,15,0.00
2012-1-14,60,54,49,-100,-100,-100,0,0,100,30.37,30.23,13,-726,17,0.00
2012-1-15,69,57,46,-100,-100,-100,0,0,100,30.47,30.34,9,-748,12,0.00
2012-1-16,72,61,51,-100,-100,-100,0,0,100,30.44,30.30,13,-753,20,0.00
2012-1-17,75,65,56,-100,-100,-100,0,0,100,30.33,30.17,9,-731,14,0.00
2012-1-18,74,66,58,-100,-100,-100,0,0,100,30.18,30.01,8,-736,11,0.00
2012-1-19,73,64,57,-100,-100,-100,0,0,100,30.18,30.02,11,-741,15,0.00
2012-1-20,77,65,54,-100,-100,-100,0,0,100,30.21,30.10,7,-732,14,0.00
2012-1-21,74,66,58,-100,-100,-100,0,0,100,30.16,30.05,10,-727,15,0.00
2012-1-22,79,68,59,-100,-100,-100,0,0,100,30.14,30.06,8,-740,14,0.00
2012-1-23,79,70,63,-100,-100,-100,0,0,100,30.13,30.05,9,-755,15,0.00
2012-1-24,81,72,64,-100,-100,-100,0,0,100,30.18,30.07,10,-754,11,0.00
2012-1-25,82,72,64,-100,-100,-100,0,0,100,30.16,30.06,11,-720,17,0.00
2012-1-26,82,72,64,-100,-100,-100,0,0,100,30.10,29.97,15,-455,21,0.00
2012-1-27,73,69,66,-100,-100,-100,0,0,100,30.07,29.96,13,-15,20,0.00
2012-1-28,75,67,63,-100,-100,-100,0,0,100,30.18,30.07,12,6,15,0.00
2012-1-29,73,66,60,-100,-100,-100,0,0,100,30.28,30.16,16,8,20,0.00
2012-1-30,75,65,57,-100,-100,-100,0,0,100,30.33,30.22,16,11,22,0.00
2012-1-31,78,68,60,-100,-100,-100,0,0,100,30.31,30.19,12,8,19,0.00
2012-2-1,83,70,62,-100,-100,-100,0,0,100,30.25,30.11,11,-2,15,0.00
2012-2-2,78,70,63,-100,-100,-100,0,0,100,30.17,30.07,10,-60,14,0.00
2012-2-3,77,71,66,-100,-100,-100,0,0,100,30.20,30.10,12,7,19,0.00
2012-2-4,82,72,66,-100,-100,-100,0,0,100,30.16,30.04,14,7,21,0.00
2012-2-5,78,72,67,-100,-100,-100,0,0,100,30.09,29.98,6,-11,11,0.00
2012-2-6,76,70,68,-100,-100,-100,0,0,100,30.07,29.97,12,-22,21,0.00
2012-2-7,78,71,69,-100,-100,-100,0,0,100,30.05,29.95,13,-29,16,0.00
2012-2-8,77,69,63,-100,-100,-100,0,0,100,30.11,29.99,10,6,13,0.00
2012-2-9,75,68,61,-100,-100,-100,0,0,100,30.14,30.04,12,8,16,0.00
2012-2-10,79,70,65,-100,-100,-100,0,0,100,30.10,29.89,12,6,14,0.00
2012-2-11,69,64,56,-100,-100,-100,0,0,100,30.14,29.90,21,12,30,0.00
2012-2-12,56,49,40,-100,-100,-100,0,0,100,30.33,30.14,18,12,26,0.00
2012-2-13,71,55,42,-100,-100,-100,0,0,100,30.27,30.10,13,7,17,0.00
2012-2-14,75,65,55,-100,-100,-100,0,0,100,30.14,30.06,12,5,17,0.00
2012-2-15,79,69,60,-100,-100,-100,0,0,100,30.21,30.10,10,-73,15,0.00
2012-2-16,78,70,63,-100,-100,-100,0,0,100,30.18,30.08,13,-9,19,0.00
2012-2-17,77,71,66,-100,-100,-100,0,0,100,30.09,30.01,11,-31,15,0.00
2012-2-18,76,71,65,-100,-100,-100,0,0,100,30.03,29.90,10,5,13,0.00
2012-2-19,77,73,69,-100,-100,-100,0,0,100,29.96,29.86,18,-6,24,0.00
2012-2-20,73,66,60,-100,-100,-100,0,0,100,30.18,29.96,17,8,22,0.00
2012-2-21,80,66,54,-100,-100,-100,0,0,100,30.22,30.11,13,6,17,0.00
2012-2-22,74,70,63,-100,-100,-100,0,0,100,30.14,29.96,11,5,16,0.00
2012-2-23,78,72,67,-100,-100,-100,0,0,100,30.01,29.92,11,6,18,0.00
2012-2-24,81,74,68,-100,-100,-100,0,0,100,30.04,29.95,14,6,20,0.00
2012-2-25,74,70,63,-100,-100,-100,0,0,100,30.20,30.01,14,8,19,0.00
2012-2-26,75,68,61,-100,-100,-100,0,0,100,30.25,30.17,14,10,23,0.00
2012-2-27,84,73,68,-100,-100,-100,0,0,100,30.27,30.17,15,-8,20,0.00
2012-2-28,84,74,67,-100,-100,-100,0,0,100,30.26,30.15,10,5,22,0.00
2012-2-29,85,74,66,-100,-100,-100,0,0,100,30.22,30.09,9,5,15,0.00
2012-3-1,82,74,67,-100,-100,-100,0,0,100,30.13,30.02,11,-2,17,0.00
2012-3-2,83,75,67,-100,-100,-100,0,0,100,30.05,29.96,12,6,19,0.00
2012-3-3,83,76,69,-100,-100,-100,0,0,100,29.97,29.84,13,6,26,0.00
2012-3-4,77,66,56,-100,-100,-100,0,0,100,30.21,29.80,28,6,39,0.00
2012-3-5,73,61,51,-100,-100,-100,0,0,100,30.37,30.21,16,6,20,0.00
2012-3-6,77,66,56,-100,-100,-100,0,0,100,30.38,30.27,17,10,28,0.00
2012-3-7,79,70,63,-100,-100,-100,0,0,100,30.34,30.22,15,9,23,0.00
2012-3-8,79,72,66,-100,-100,-100,0,0,100,30.26,30.14,15,7,21,0.00
2012-3-9,81,73,67,-100,-100,-100,0,0,100,30.20,30.08,10,-9,15,0.00
2012-3-10,81,73,68,-100,-100,-100,0,0,100,30.19,30.10,12,5,19,0.00
2012-3-11,82,73,67,-100,-100,-100,0,0,100,30.25,30.15,12,7,18,0.00
2012-3-12,80,72,67,-100,-100,-100,0,0,100,30.27,30.16,13,8,19,0.00
2012-3-13,80,72,65,-100,-100,-100,0,0,100,30.24,30.14,11,6,17,0.00
2012-3-14,80,72,64,-100,-100,-100,0,0,100,30.22,30.11,13,6,19,0.00
2012-3-15,82,72,65,-100,-100,-100,0,0,100,30.22,30.12,12,8,19,0.00
2012-3-16,82,73,66,-100,-100,-100,0,0,100,30.22,30.10,10,-1,17,0.00
2012-3-17,82,73,66,-100,-100,-100,0,0,100,30.23,30.11,12,6,20,0.00
2012-3-18,82,72,65,-100,-100,-100,0,0,100,30.23,30.10,13,6,21,0.00
2012-3-19,82,73,65,-100,-100,-100,0,0,100,30.17,30.04,11,6,16,0.00
2012-3-20,83,72,65,-100,-100,-100,0,0,100,30.10,30.00,12,6,21,0.00
2012-3-21,85,74,66,-100,-100,-100,0,0,100,30.12,30.00,13,6,22,0.00
2012-3-22,85,74,69,-100,-100,-100,0,0,100,30.14,30.03,14,-1,21,0.00
2012-3-23,83,74,66,-100,-100,-100,0,0,100,30.12,30.01,11,5,15,0.00
2012-3-24,79,75,69,-100,-100,-100,0,0,100,30.05,29.94,10,-2,17,0.00
2012-3-25,78,74,70,-100,-100,-100,0,0,100,29.97,29.85,20,9,26,0.00
2012-3-26,80,73,67,-100,-100,-100,0,0,100,30.02,29.91,16,8,20,0.00
2012-3-27,83,74,66,-100,-100,-100,0,0,100,30.16,30.00,13,7,21,0.00
2012-3-28,83,73,64,-100,-100,-100,0,0,100,30.17,30.03,14,5,19,0.00
2012-3-29,84,73,65,-100,-100,-100,0,0,100,30.09,29.96,9,4,13,0.00
2012-3-30,83,74,65,-100,-100,-100,0,0,100,30.07,29.98,10,-2,15,0.00
2012-3-31,81,74,66,-100,-100,-100,0,0,100,30.01,29.91,12,6,21,0.00
2012-4-1,82,76,71,-100,-100,-100,0,0,100,29.96,29.88,16,7,19,0.00
2012-4-2,84,75,68,-100,-100,-100,0,0,100,29.94,29.87,14,-3,16,0.00
2012-4-3,86,76,68,-100,-100,-100,0,0,100,29.99,29.89,11,-10,16,0.00
2012-4-4,82,76,69,-100,-100,-100,0,0,100,29.98,29.83,11,5,21,0.00
2012-4-5,81,75,68,-100,-100,-100,0,0,100,29.92,29.76,27,8,34,0.00
2012-4-6,80,78,70,-100,-100,-100,0,0,100,29.94,29.74,22,13,30,0.00
2012-4-7,80,72,63,-100,-100,-100,0,0,100,30.12,29.94,14,10,21,0.00
2012-4-8,82,72,63,-100,-100,-100,0,0,100,30.16,30.04,12,7,16,0.00
2012-4-9,87,73,62,-100,-100,-100,0,0,100,30.10,29.97,12,5,14,0.00
2012-4-10,85,75,67,-100,-100,-100,0,0,100,30.09,29.98,11,5,15,0.00
2012-4-11,80,75,69,-100,-100,-100,0,0,100,30.07,29.98,15,-1,19,0.00
2012-4-12,84,74,66,-100,-100,-100,0,0,100,30.07,29.98,16,7,20,0.00
2012-4-13,85,75,66,-100,-100,-100,0,0,100,30.11,30.00,13,6,15,0.00
2012-4-14,76,72,68,-100,-100,-100,0,0,100,30.20,30.08,16,8,23,0.00
2012-4-15,83,74,66,-100,-100,-100,0,0,100,30.20,30.11,13,6,19,0.00
2012-4-16,83,74,65,-100,-100,-100,0,0,100,30.18,30.10,15,6,21,0.00
2012-4-17,85,73,66,-100,-100,-100,0,0,100,30.15,30.02,11,-35,17,0.00
2012-4-18,81,74,66,-100,-100,-100,0,0,100,30.10,29.96,12,6,17,0.00
2012-4-19,82,75,70,-100,-100,-100,0,0,100,30.00,29.88,12,-2,17,0.00
2012-4-20,82,76,71,-100,-100,-100,0,0,100,29.93,29.83,12,5,18,0.00
2012-4-21,76,71,68,-100,-100,-100,0,0,100,29.88,29.63,13,6,19,0.00
2012-4-22,76,72,64,-100,-100,-100,0,0,100,29.78,29.57,26,13,39,0.00
2012-4-23,74,70,66,-100,-100,-100,0,0,100,29.93,29.77,25,13,31,0.00
2012-4-24,72,65,58,-100,-100,-100,0,0,100,30.06,29.92,17,10,24,0.00
2012-4-25,76,67,55,-100,-100,-100,0,0,100,30.12,30.04,12,6,14,0.00
2012-4-26,82,72,61,-100,-100,-100,0,0,100,30.15,30.05,12,5,14,0.00
2012-4-27,87,75,65,-100,-100,-100,0,0,100,30.12,30.01,10,4,13,0.00
2012-4-28,87,76,69,-100,-100,-100,0,0,100,30.09,30.00,15,-2,21,0.00
2012-4-29,78,74,70,-100,-100,-100,0,0,100,30.08,30.00,14,7,20,0.00
2012-4-30,82,75,70,-100,-100,-100,0,0,100,30.07,29.98,24,11,31,0.00
2012-5-1,84,75,71,-100,-100,-100,0,0,100,30.05,29.97,14,8,22,0.00
2012-5-2,88,78,71,-100,-100,-100,0,0,100,30.08,29.98,13,6,20,0.00
2012-5-3,88,78,69,-100,-100,-100,0,0,100,30.09,30.00,12,5,20,0.00
2012-5-4,87,78,71,-100,-100,-100,0,0,100,30.09,29.97,11,4,14,0.00
2012-5-5,85,78,72,-100,-100,-100,0,0,100,30.03,29.93,11,5,14,0.00
2012-5-6,83,78,72,-100,-100,-100,0,0,100,30.00,29.90,10,5,13,0.00
2012-5-7,82,78,72,-100,-100,-100,0,0,100,29.94,29.85,11,6,15,0.00
2012-5-8,83,78,71,-100,-100,-100,0,0,100,29.93,29.86,13,5,17,0.00
2012-5-9,84,78,73,-100,-100,-100,0,0,100,29.91,29.81,15,7,22,0.00
2012-5-10,84,80,75,-100,-100,-100,0,0,100,29.93,29.80,17,9,21,0.00
2012-5-11,89,78,68,-100,-100,-100,0,0,100,30.09,29.90,13,6,20,0.00
2012-5-12,87,79,72,-100,-100,-100,0,0,100,30.14,30.05,13,8,21,0.00
2012-5-13,87,76,70,-100,-100,-100,0,0,100,30.12,29.98,13,-2,18,0.00
2012-5-14,86,78,72,-100,-100,-100,0,0,100,30.07,29.92,9,-3,14,0.00
2012-5-15,86,77,72,-100,-100,-100,0,0,100,30.03,29.94,13,-3,16,0.00
2012-5-16,82,76,71,-100,-100,-100,0,0,100,30.03,29.91,16,-11,23,0.00
2012-5-17,83,76,71,-100,-100,-100,0,0,100,29.98,29.88,10,-10,15,0.00
2012-5-18,86,79,73,-100,-100,-100,0,0,100,29.95,29.87,13,5,19,0.00
2012-5-19,89,78,70,-100,-100,-100,0,0,100,29.97,29.85,17,5,26,0.00
2012-5-20,90,77,70,-100,-100,-100,0,0,100,29.98,29.88,15,6,18,0.00
2012-5-21,89,78,71,-100,-100,-100,0,0,100,30.00,29.91,13,6,17,0.00
2012-5-22,88,80,71,-100,-100,-100,0,0,100,29.98,29.88,11,5,14,0.00
2012-5-23,90,79,71,-100,-100,-100,0,0,100,29.93,29.80,19,4,26,0.00
2012-5-24,87,79,72,-100,-100,-100,0,0,100,29.91,29.82,12,5,19,0.00
2012-5-25,91,81,74,-100,-100,-100,0,0,100,30.04,29.87,10,4,16,0.00
2012-5-26,91,80,73,-100,-100,-100,0,0,100,30.06,29.93,15,-9,18,0.00
2012-5-27,87,81,76,-100,-100,-100,0,0,100,29.99,29.86,14,-15,18,0.00
2012-5-28,86,83,80,-100,-100,-100,0,0,100,29.96,29.86,12,6,17,0.00
2012-5-29,86,81,75,-100,-100,-100,0,0,100,29.97,29.89,12,6,17,0.00
2012-5-30,86,82,79,-100,-100,-100,0,0,100,29.94,29.84,13,8,18,0.00
2012-5-31,84,81,79,-100,-100,-100,0,0,100,29.96,29.87,11,6,15,0.00
2012-6-1,83,78,74,-100,-100,-100,0,0,100,29.96,29.86,14,6,24,0.00
2012-6-2,84,80,75,-100,-100,-100,0,0,100,29.99,29.89,14,0,17,0.00
2012-6-3,88,82,77,-100,-100,-100,0,0,100,30.05,29.95,11,-1,15,0.00
2012-6-4,84,81,76,-100,-100,-100,0,0,100,30.01,29.89,16,0,22,0.00
2012-6-5,85,82,80,-100,-100,-100,0,0,100,29.92,29.82,14,6,18,0.00
2012-6-6,85,81,75,-100,-100,-100,0,0,100,29.94,29.85,12,5,16,0.00
2012-6-7,86,82,78,-100,-100,-100,0,0,100,29.98,29.90,11,5,19,0.00
2012-6-8,86,80,75,-100,-100,-100,0,0,100,29.98,29.89,12,5,17,0.00
2012-6-9,88,80,71,-100,-100,-100,0,0,100,30.05,29.91,17,7,23,0.00
2012-6-10,91,81,76,-100,-100,-100,0,0,100,30.13,29.98,14,4,25,0.00
2012-6-11,90,83,75,-100,-100,-100,0,0,100,30.12,30.04,11,5,17,0.00
2012-6-12,90,81,74,-100,-100,-100,0,0,100,30.09,29.94,17,-9,26,0.00
2012-6-13,89,82,75,-100,-100,-100,0,0,100,29.99,29.89,12,-37,15,0.00
2012-6-14,90,83,77,-100,-100,-100,0,0,100,30.00,29.89,17,7,20,0.00
2012-6-15,93,79,72,-100,-100,-100,0,0,100,30.03,29.91,29,6,44,0.00
2012-6-16,86,79,75,-100,-100,-100,0,0,100,30.03,29.95,17,8,25,0.00
2012-6-17,86,79,73,-100,-100,-100,0,0,100,30.04,29.92,14,8,18,0.00
2012-6-18,87,79,71,-100,-100,-100,0,0,100,30.02,29.94,13,8,18,0.00
2012-6-19,84,79,73,-100,-100,-100,0,0,100,30.04,29.96,13,9,21,0.00
2012-6-20,83,78,74,-100,-100,-100,0,0,100,30.00,29.92,13,8,19,0.00
2012-6-21,87,79,75,-100,-100,-100,0,0,100,29.98,29.86,13,5,22,0.00
2012-6-22,82,77,75,-100,-100,-100,0,0,100,29.93,29.82,9,4,15,0.00
2012-6-23,80,76,73,-100,-100,-100,0,0,100,29.95,29.84,11,5,16,0.00
2012-6-24,84,78,74,-100,-100,-100,0,0,100,29.93,29.76,18,10,33,0.00
2012-6-25,83,81,74,-100,-100,-100,0,0,100,29.80,29.70,19,12,34,0.00
2012-6-26,84,82,76,-100,-100,-100,0,0,100,29.74,29.65,18,10,35,0.00
2012-6-27,84,80,77,-100,-100,-100,0,0,100,30.00,29.73,18,9,26,0.00
2012-6-28,91,81,75,-100,-100,-100,0,0,100,30.08,30.00,12,-2,14,0.00
2012-6-29,89,82,75,-100,-100,-100,0,0,100,30.06,29.96,11,5,14,0.00
2012-6-30,88,84,79,-100,-100,-100,0,0,100,30.02,29.94,13,-3,15,0.00
2012-7-1,91,84,77,-100,-100,-100,0,0,100,30.09,29.99,14,-2,17,0.00
2012-7-2,91,83,78,-100,-100,-100,0,0,100,30.12,29.99,13,-2,16,0.00
2012-7-3,93,80,69,-100,-100,-100,0,0,100,30.08,29.98,14,-35,32,0.00
2012-7-4,88,81,71,-100,-100,-100,0,0,100,30.09,30.01,22,-18,36,0.00
2012-7-5,88,80,75,-100,-100,-100,0,0,100,30.07,29.98,11,-4,17,0.00
2012-7-6,90,79,74,-100,-100,-100,0,0,100,30.05,30.00,16,4,25,0.00
2012-7-7,91,81,74,-100,-100,-100,0,0,100,30.08,30.01,13,-18,21,0.00
2012-7-8,93,82,75,-100,-100,-100,0,0,100,30.09,29.99,15,-3,28,0.00
2012-7-9,93,80,74,-100,-100,-100,0,0,100,30.05,29.96,21,4,28,0.00
2012-7-10,91,80,74,-100,-100,-100,0,0,100,30.04,29.95,15,-1,19,0.00
2012-7-11,85,78,73,-100,-100,-100,0,0,100,30.05,29.96,11,5,16,0.00
2012-7-12,86,79,76,-100,-100,-100,0,0,100,30.03,29.95,13,3,16,0.00
2012-7-13,88,79,73,-100,-100,-100,0,0,100,30.05,29.97,19,4,24,0.00
2012-7-14,87,80,75,-100,-100,-100,0,0,100,30.09,29.98,13,-2,21,0.00
2012-7-15,87,79,74,-100,-100,-100,0,0,100,30.10,30.02,10,4,16,0.00
2012-7-16,88,77,73,-100,-100,-100,0,0,100,30.09,29.97,14,4,17,0.00
2012-7-17,83,77,73,-100,-100,-100,0,0,100,30.06,29.97,14,4,16,0.00
2012-7-18,88,82,75,-100,-100,-100,0,0,100,30.12,30.00,9,-3,13,0.00
2012-7-19,93,84,78,-100,-100,-100,0,0,100,30.18,30.09,12,-2,15,0.00
2012-7-20,93,84,78,-100,-100,-100,0,0,100,30.13,30.01,13,-3,21,0.00
2012-7-21,93,82,77,-100,-100,-100,0,0,100,30.10,30.02,13,-3,16,0.00
2012-7-22,88,79,74,-100,-100,-100,0,0,100,30.13,30.04,13,6,20,0.00
2012-7-23,88,80,74,-100,-100,-100,0,0,100,30.15,30.09,9,5,15,0.00
2012-7-24,91,82,75,-100,-100,-100,0,0,100,30.14,30.03,12,4,20,0.00
2012-7-25,89,84,78,-100,-100,-100,0,0,100,30.06,30.00,11,-10,14,0.00
2012-7-26,89,84,79,-100,-100,-100,0,0,100,30.06,29.98,10,-2,13,0.00
2012-7-27,91,84,79,-100,-100,-100,0,0,100,30.10,30.00,15,-3,20,0.00
2012-7-28,89,83,77,-100,-100,-100,0,0,100,30.12,30.03,16,-3,20,0.00
2012-7-29,89,84,78,-100,-100,-100,0,0,100,30.09,30.00,9,5,13,0.00
2012-7-30,90,85,79,-100,-100,-100,0,0,100,30.06,29.99,16,-2,19,0.00
2012-7-31,89,84,77,-100,-100,-100,0,0,100,30.05,29.97,14,6,17,0.00
2012-8-1,89,84,78,-100,-100,-100,0,0,100,30.04,29.95,17,6,21,0.00
2012-8-2,90,84,79,-100,-100,-100,0,0,100,30.01,29.93,13,4,20,0.00
2012-8-3,92,82,76,-100,-100,-100,0,0,100,30.02,29.93,13,-18,20,0.00
2012-8-4,91,82,76,-100,-100,-100,0,0,100,30.05,29.96,18,5,21,0.00
2012-8-5,92,80,72,-100,-100,-100,0,0,100,30.08,30.00,12,5,17,0.00
2012-8-6,90,80,75,-100,-100,-100,0,0,100,30.07,29.98,15,5,21,0.00
2012-8-7,92,83,75,-100,-100,-100,0,0,100,30.04,29.95,10,-3,15,0.00
2012-8-8,95,84,71,-100,-100,-100,0,0,100,30.05,29.95,19,5,33,0.00
2012-8-9,93,82,76,-100,-100,-100,0,0,100,30.02,29.90,14,-11,25,0.00
2012-8-10,91,81,75,-100,-100,-100,0,0,100,30.02,29.91,26,4,35,0.00
2012-8-11,86,78,75,-100,-100,-100,0,0,100,30.04,29.93,17,4,23,0.00
2012-8-12,82,78,76,-100,-100,-100,0,0,100,30.07,29.97,10,-18,14,0.00
2012-8-13,92,82,76,-100,-100,-100,0,0,100,30.08,30.00,17,-3,21,0.00
2012-8-14,90,81,76,-100,-100,-100,0,0,100,30.06,29.95,12,4,18,0.00
2012-8-15,92,81,75,-100,-100,-100,0,0,100,30.06,29.96,16,4,23,0.00
2012-8-16,93,83,79,-100,-100,-100,0,0,100,30.09,29.99,11,-25,15,0.00
2012-8-17,87,82,78,-100,-100,-100,0,0,100,30.05,29.95,12,-4,20,0.00
2012-8-18,86,81,77,-100,-100,-100,0,0,100,30.01,29.91,12,-10,17,0.00
2012-8-19,89,83,77,-100,-100,-100,0,0,100,30.01,29.93,16,5,23,0.00
2012-8-20,89,84,78,-100,-100,-100,0,0,100,30.02,29.91,16,5,23,0.00
2012-8-21,91,82,74,-100,-100,-100,0,0,100,30.11,29.97,17,-1,34,0.00
2012-8-22,90,80,73,-100,-100,-100,0,0,100,30.12,30.01,14,5,19,0.00
2012-8-23,92,81,73,-100,-100,-100,0,0,100,30.09,30.00,13,4,20,0.00
2012-8-24,91,83,77,-100,-100,-100,0,0,100,30.04,29.92,12,7,18,0.00
2012-8-25,84,80,75,-100,-100,-100,0,0,100,29.99,29.89,15,9,21,0.00
2012-8-26,83,79,74,-100,-100,-100,0,0,100,29.94,29.70,19,14,31,0.00
2012-8-27,87,81,78,-100,-100,-100,0,0,100,29.88,29.65,17,11,32,0.00
2012-8-28,88,83,77,-100,-100,-100,0,0,100,29.99,29.88,14,8,27,0.00
2012-8-29,89,82,78,-100,-100,-100,0,0,100,29.99,29.92,11,5,18,0.00
2012-8-30,91,82,78,-100,-100,-100,0,0,100,30.11,29.96,11,4,14,0.00
2012-8-31,92,83,77,-100,-100,-100,0,0,100,30.15,30.06,13,5,18,0.00
2012-9-1,89,83,78,-100,-100,-100,0,0,100,30.14,30.02,13,7,17,0.00
2012-9-2,88,82,76,-100,-100,-100,0,0,100,30.08,29.96,10,6,13,0.00
2012-9-3,92,82,75,-100,-100,-100,0,0,100,30.06,29.96,12,5,15,0.00
2012-9-4,89,81,74,-100,-100,-100,0,0,100,30.03,29.94,10,5,15,0.00
2012-9-5,87,80,74,-100,-100,-100,0,0,100,30.02,29.92,13,-2,22,0.00
2012-9-6,88,79,73,-100,-100,-100,0,0,100,30.02,29.95,13,6,17,0.00
2012-9-7,88,82,74,-100,-100,-100,0,0,100,30.01,29.91,10,-2,14,0.00
2012-9-8,88,83,77,-100,-100,-100,0,0,100,29.98,29.89,12,4,15,0.00
2012-9-9,86,84,82,-100,-100,-100,0,0,100,29.98,29.91,16,8,21,0.00
2012-9-10,85,82,77,-100,-100,-100,0,0,100,30.02,29.94,17,7,23,0.00
2012-9-11,86,80,76,-100,-100,-100,0,0,100,30.09,29.98,19,6,23,0.00
2012-9-12,88,81,76,-100,-100,-100,0,0,100,30.10,29.99,20,10,23,0.00
2012-9-13,83,80,76,-100,-100,-100,0,0,100,30.07,29.98,15,8,22,0.00
2012-9-14,90,81,75,-100,-100,-100,0,0,100,30.04,29.93,13,6,21,0.00
2012-9-15,86,80,76,-100,-100,-100,0,0,100,30.05,29.96,12,5,19,0.00
2012-9-16,87,78,73,-100,-100,-100,0,0,100,30.04,29.95,13,-2,16,0.00
2012-9-17,88,79,74,-100,-100,-100,0,0,100,30.00,29.90,15,5,24,0.00
2012-9-18,87,80,74,-100,-100,-100,0,0,100,29.98,29.90,17,-9,28,0.00
2012-9-19,89,81,74,-100,-100,-100,0,0,100,30.05,29.92,9,4,11,0.00
2012-9-20,91,80,74,-100,-100,-100,0,0,100,30.05,29.92,13,-32,26,0.00
2012-9-21,87,76,70,-100,-100,-100,0,0,100,30.01,29.89,20,-3,33,0.00
2012-9-22,85,76,73,-100,-100,-100,0,0,100,30.03,29.94,10,-17,16,0.00
2012-9-23,87,79,74,-100,-100,-100,0,0,100,30.07,29.99,8,-24,11,0.00
2012-9-24,83,79,75,-100,-100,-100,0,0,100,30.09,30.00,12,6,15,0.00
2012-9-25,85,79,74,-100,-100,-100,0,0,100,30.09,30.00,10,6,13,0.00
2012-9-26,87,80,76,-100,-100,-100,0,0,100,30.10,30.01,12,5,17,0.00
2012-9-27,89,81,74,-100,-100,-100,0,0,100,30.10,29.98,8,5,16,0.00
2012-9-28,89,81,74,-100,-100,-100,0,0,100,30.05,29.91,8,5,11,0.00
2012-9-29,93,81,74,-100,-100,-100,0,0,100,29.98,29.84,11,-9,14,0.00
2012-9-30,89,81,74,-100,-100,-100,0,0,100,29.91,29.78,10,-3,25,0.00
2012-10-1,86,80,76,-100,-100,-100,0,0,100,29.84,29.75,10,5,15,0.00
2012-10-2,86,78,74,-100,-100,-100,0,0,100,30.04,29.83,11,5,16,0.00
2012-10-3,90,79,74,-100,-100,-100,0,0,100,30.16,30.02,14,-9,22,0.00
2012-10-4,90,79,76,-100,-100,-100,0,0,100,30.16,30.07,10,6,17,0.00
2012-10-5,92,80,75,-100,-100,-100,0,0,100,30.11,29.92,16,6,20,0.00
2012-10-6,92,81,75,-100,-100,-100,0,0,100,29.99,29.84,12,-17,18,0.00
2012-10-7,87,78,75,-100,-100,-100,0,0,100,29.98,29.88,11,-2,20,0.00
2012-10-8,87,80,75,-100,-100,-100,0,0,100,30.02,29.92,12,-2,20,0.00
2012-10-9,88,80,74,-100,-100,-100,0,0,100,30.04,29.95,10,-9,14,0.00
2012-10-10,86,80,74,-100,-100,-100,0,0,100,30.09,29.99,11,7,13,0.00
2012-10-11,85,78,72,-100,-100,-100,0,0,100,30.14,30.06,12,9,17,0.00
2012-10-12,83,76,69,-100,-100,-100,0,0,100,30.15,30.07,14,9,20,0.00
2012-10-13,84,77,71,-100,-100,-100,0,0,100,30.14,30.03,16,10,24,0.00
2012-10-14,85,79,72,-100,-100,-100,0,0,100,30.09,29.95,14,8,20,0.00
2012-10-15,94,79,74,-100,-100,-100,0,0,100,29.96,29.80,25,-2,28,0.00
2012-10-16,90,79,74,-100,-100,-100,0,0,100,29.88,29.77,12,-16,14,0.00
2012-10-17,83,77,72,-100,-100,-100,0,0,100,29.88,29.80,10,4,12,0.00
2012-10-18,84,78,72,-100,-100,-100,0,0,100,29.89,29.80,10,4,12,0.00
2012-10-19,87,80,75,-100,-100,-100,0,0,100,29.89,29.81,11,-16,13,0.00
2012-10-20,84,79,74,-100,-100,-100,0,0,100,29.96,29.85,15,6,22,0.00
2012-10-21,82,74,66,-100,-100,-100,0,0,100,30.03,29.93,11,8,16,0.00
2012-10-22,83,75,67,-100,-100,-100,0,0,100,30.04,29.94,13,9,25,0.00
2012-10-23,84,76,69,-100,-100,-100,0,0,100,30.02,29.91,17,9,23,0.00
2012-10-24,84,77,72,-100,-100,-100,0,0,100,29.99,29.85,16,9,22,0.00
2012-10-25,80,76,73,-100,-100,-100,0,0,100,29.88,29.74,17,11,22,0.00
2012-10-26,84,77,73,-100,-100,-100,0,0,100,29.76,29.59,24,14,31,0.00
2012-10-27,80,76,72,-100,-100,-100,0,0,100,29.73,29.59,29,17,34,0.00
2012-10-28,76,73,69,-100,-100,-100,0,0,100,29.80,29.70,24,14,31,0.00
2012-10-29,69,66,59,-100,-100,-100,0,0,100,29.90,29.79,23,13,30,0.00
2012-10-30,68,63,55,-100,-100,-100,0,0,100,29.99,29.84,23,11,33,0.00
2012-10-31,73,66,59,-100,-100,-100,0,0,100,30.07,29.98,13,5,16,0.00
2012-11-1,75,70,63,-100,-100,-100,0,0,100,30.06,29.98,14,-2,18,0.00
2012-11-2,80,70,65,-100,-100,-100,0,0,100,30.11,30.01,13,-23,15,0.00
2012-11-3,80,70,62,-100,-100,-100,0,0,100,30.15,30.04,10,4,11,0.00
2012-11-4,83,71,63,-100,-100,-100,0,0,100,30.12,29.99,8,-37,10,0.00
2012-11-5,78,72,66,-100,-100,-100,0,0,100,30.03,29.93,8,-11,10,0.00
2012-11-6,75,70,67,-100,-100,-100,0,0,100,29.95,29.84,13,-38,16,0.00
2012-11-7,70,65,60,-100,-100,-100,0,0,100,30.00,29.86,21,10,30,0.00
2012-11-8,67,61,56,-100,-100,-100,0,0,100,30.17,29.98,17,10,21,0.00
2012-11-9,73,63,52,-100,-100,-100,0,0,100,30.24,30.14,11,7,15,0.00
2012-11-10,75,67,60,-100,-100,-100,0,0,100,30.28,30.18,11,7,22,0.00
2012-11-11,80,70,62,-100,-100,-100,0,0,100,30.24,30.16,11,6,19,0.00
2012-11-12,78,71,65,-100,-100,-100,0,0,100,30.21,30.13,15,5,21,0.00
2012-11-13,79,72,65,-100,-100,-100,0,0,100,30.16,30.06,9,5,11,0.00
2012-11-14,78,71,66,-100,-100,-100,0,0,100,30.15,30.05,11,6,13,0.00
2012-11-15,78,69,64,-100,-100,-100,0,0,100,30.13,30.04,12,6,16,0.00
2012-11-16,67,65,61,-100,-100,-100,0,0,100,30.13,30.06,12,9,16,0.00
2012-11-17,79,69,61,-100,-100,-100,0,0,100,30.11,30.02,14,9,19,0.00
2012-11-18,72,67,63,-100,-100,-100,0,0,100,30.15,30.07,14,10,17,0.00
2012-11-19,73,63,57,-100,-100,-100,0,0,100,30.15,30.04,13,9,17,0.00
2012-11-20,74,64,58,-100,-100,-100,0,0,100,30.09,29.95,12,8,15,0.00
2012-11-21,71,64,58,-100,-100,-100,0,0,100,30.09,29.97,15,8,21,0.00
2012-11-22,71,62,55,-100,-100,-100,0,0,100,30.16,30.06,16,8,20,0.00
2012-11-23,73,62,53,-100,-100,-100,0,0,100,30.20,30.08,11,7,13,0.00
2012-11-24,75,64,55,-100,-100,-100,0,0,100,30.13,30.01,15,-70,19,0.00
2012-11-25,71,60,51,-100,-100,-100,0,0,100,30.17,30.07,9,4,10,0.00
2012-11-26,80,66,55,-100,-100,-100,0,0,100,30.21,30.10,9,-10,13,0.00
2012-11-27,80,69,60,-100,-100,-100,0,0,100,30.19,30.09,8,-25,12,0.00
2012-11-28,73,68,62,-100,-100,-100,0,0,100,30.22,30.11,11,-8,15,0.00
2012-11-29,77,66,57,-100,-100,-100,0,0,100,30.24,30.14,13,9,18,0.00
2012-11-30,75,68,62,-100,-100,-100,0,0,100,30.22,30.12,15,8,20,0.00
2012-12-1,78,69,61,-100,-100,-100,0,0,100,30.22,30.13,11,7,19,0.00
2012-12-2,79,70,64,-100,-100,-100,0,0,100,30.24,30.14,12,7,19,0.00
2012-12-3,79,70,65,-100,-100,-100,0,0,100,30.25,30.15,13,7,18,0.00
2012-12-4,77,69,64,-100,-100,-100,0,0,100,30.25,30.15,9,6,14,0.00
2012-12-5,76,68,63,-100,-100,-100,0,0,100,30.17,30.03,10,-24,14,0.00
2012-12-6,76,69,64,-100,-100,-100,0,0,100,30.05,29.91,8,4,12,0.00
2012-12-7,82,70,63,-100,-100,-100,0,0,100,29.99,29.89,9,-10,11,0.00
2012-12-8,84,72,66,-100,-100,-100,0,0,100,30.04,29.94,16,-3,21,0.00
2012-12-9,81,73,65,-100,-100,-100,0,0,100,30.09,29.99,7,-18,9,0.00
2012-12-10,85,75,67,-100,-100,-100,0,0,100,30.02,29.87,12,6,20,0.00
2012-12-11,79,75,72,-100,-100,-100,0,0,100,30.04,29.91,10,-2,16,0.00
2012-12-12,80,75,70,-100,-100,-100,0,0,100,30.08,29.98,11,4,20,0.00
2012-12-13,73,68,62,-100,-100,-100,0,0,100,30.16,30.03,15,9,20,0.00
2012-12-14,74,66,58,-100,-100,-100,0,0,100,30.18,30.06,13,10,17,0.00
2012-12-15,78,69,62,-100,-100,-100,0,0,100,30.12,30.01,11,6,16,0.00
2012-12-16,80,72,64,-100,-100,-100,0,0,100,30.06,29.94,8,-24,13,0.00
2012-12-17,79,72,66,-100,-100,-100,0,0,100,29.99,29.90,11,-54,15,0.00
2012-12-18,78,73,68,-100,-100,-100,0,0,100,30.03,29.90,13,5,18,0.00
2012-12-19,86,69,60,-100,-100,-100,0,0,100,30.11,30.02,9,-17,11,0.00
2012-12-20,82,72,63,-100,-100,-100,0,0,100,30.09,29.95,12,5,17,0.00
2012-12-21,73,63,51,-100,-100,-100,0,0,100,30.22,29.96,22,12,29,0.00
2012-12-22,64,54,45,-100,-100,-100,0,0,100,30.31,30.20,12,8,17,0.00
2012-12-23,70,57,47,-100,-100,-100,0,0,100,30.27,30.14,8,-31,10,0.00
2012-12-24,72,64,55,-100,-100,-100,0,0,100,30.16,29.98,7,-11,11,0.00
2012-12-25,76,67,59,-100,-100,-100,0,0,100,30.03,29.90,9,4,13,0.00
2012-12-26,78,69,61,-100,-100,-100,0,0,100,30.01,29.83,18,8,23,0.00
2012-12-27,69,59,51,-100,-100,-100,0,0,100,30.09,30.00,10,-2,12,0.00
2012-12-28,73,64,52,-100,-100,-100,0,0,100,30.07,29.94,7,4,13,0.00
2012-12-29,76,70,59,-100,-100,-100,0,0,100,30.16,29.91,19,9,23,0.00
2012-12-30,60,54,44,-100,-100,-100,0,0,100,30.33,30.15,17,10,22,0.00
2012-12-31,76,62,49,-100,-100,-100,0,0,100,30.31,30.16,12,-8,20,0.00
2013-1-1,78,68,60,-100,-100,-100,0,0,100,30.21,30.04,11,-38,22,0.00